This is the latest recevied weather packets stored in our database for station/object KI5MKI. If no packets are shown the sender has not sent any weather packets the latest 10 day(s).
| Time | Temp. | Humidity | Pressure | Rain* | Wind** | Luminosity | Snow |
|---|---|---|---|---|---|---|---|
| 1777830756 | 26.11° C | 47% | 1021 hPa | 0 mm | - | 935 W/m² | - |
| 1777830452 | 26.11° C | 44% | 1020.8 hPa | 0 mm | - | 937 W/m² | - |
| 1777830150 | 26.11° C | 47% | 1021.2 hPa | 0 mm | - | 935 W/m² | - |
| 1777829850 | 25.56° C | 48% | 1021 hPa | 0 mm | - | 931 W/m² | - |
| 1777829546 | 25.56° C | 47% | 1021.2 hPa | 0 mm | - | 924 W/m² | - |
| 1777829244 | 25.56° C | 43% | 1021.2 hPa | 0 mm | - | 920 W/m² | - |
| 1777828940 | 25.56° C | 46% | 1021.4 hPa | 0 mm | - | 917 W/m² | - |
| 1777828637 | 25.56° C | 44% | 1021.3 hPa | 0 mm | - | 910 W/m² | - |
| 1777828334 | 25.56° C | 45% | 1021.5 hPa | 0 mm | - | 902 W/m² | - |
| 1777828031 | 25° C | 45% | 1021.5 hPa | 0 mm | - | 896 W/m² | - |
| 1777827728 | 25° C | 46% | 1021.7 hPa | 0 mm | - | 888 W/m² | - |
| 1777827425 | 25° C | 48% | 1021.7 hPa | 0 mm | - | 877 W/m² | - |
| 1777827121 | 25° C | 46% | 1021.7 hPa | 0 mm | - | 866 W/m² | - |
| 1777826818 | 25° C | 48% | 1021.7 hPa | 0 mm | - | 856 W/m² | - |
| 1777826515 | 25° C | 45% | 1021.7 hPa | 0 mm | - | 845 W/m² | - |
| 1777826212 | 25° C | 49% | 1021.8 hPa | 0 mm | - | 835 W/m² | - |
| 1777825909 | 25° C | 45% | 1021.8 hPa | 0 mm | - | 823 W/m² | - |
| 1777825606 | 25° C | 48% | 1022 hPa | 0 mm | - | 814 W/m² | - |
| 1777825304 | 23.89° C | 50% | 1021.9 hPa | 0 mm | - | 800 W/m² | - |
| 1777825001 | 23.89° C | 46% | 1021.8 hPa | 0 mm | - | 791 W/m² | - |
| 1777824697 | 23.89° C | 52% | 1021.9 hPa | 0 mm | - | 780 W/m² | - |
| 1777824394 | 23.89° C | 47% | 1021.9 hPa | 0 mm | - | 768 W/m² | - |
| 1777824090 | 23.89° C | 53% | 1021.9 hPa | 0 mm | - | 757 W/m² | - |
| 1777823786 | 23.89° C | 51% | 1021.9 hPa | 0 mm | - | 742 W/m² | - |
| 1777823484 | 23.89° C | 50% | 1021.8 hPa | 0 mm | - | 731 W/m² | - |
* Rain latest hour (hover to see other rain measurements)
** Current wind speed in m/s (hover to see current wind gust speed)